818  
ASUS44 KCRP 270411  
HRRCRP  
 
SOUTH TEXAS REGIONAL WEATHER ROUNDUP  
NATIONAL WEATHER SERVICE CORPUS CHRISTI TX  
1100 PM CDT WED JUL 26 2017  
 
TXZ229>244-270500-   
..CORPUS CHRISTI AREA OBSERVATIONS
 
 
 
CITY SKY/WX TMP DP RH WIND PRES REMARKS  
CORPUS CHRISTI PTCLDY 81 75 82 SE8 30.05R  
NAS CORPUS CHR PTCLDY 85 75 72 SE14 30.05R HX 93  
ROCKPORT CLEAR 83 74 74 SE9 30.05R  
KINGSVILLE NAS PTCLDY 81 75 82 SE12 30.05R  
ALICE CLEAR 76 72 87 SE8 30.05R  
FALFURRIAS PTCLDY 80 74 81 SE9 30.04R  

 
   
..VICTORIA AREA OBSERVATIONS
 
 
 
CITY SKY/WX TMP DP RH WIND PRES REMARKS  
VICTORIA CLEAR 80 71 74 S8 30.06R  
BEEVILLE FAIR 80 75 84 SE7 30.05R  
PLEASANTON MOCLDY 80 69 69 SE6 30.05R  
SAN ANTONIO PTCLDY 82 70 66 S13 30.06R  

 
   
..LAREDO AREA OBSERVATIONS
 
 
 
CITY SKY/WX TMP DP RH WIND PRES REMARKS  
LAREDO PTCLDY 84 71 65 SE18 30.02R  
COTULLA PTCLDY 80 67 64 SE12 30.02R  
DEL RIO CLEAR 87 67 51 SE15G24 29.98R HX 90  
MCALLEN CLEAR 83 72 69 SE13 30.05R  
HEBBRONVILLE CLEAR 78 70 76 SE10 30.06R  

 
   
..OTHER TEXAS OBSERVATIONS
 
 
 
CITY SKY/WX TMP DP RH WIND PRES REMARKS  
BROWNSVILLE CLEAR 78 75 90 S6 30.06R  
HOUSTON PTCLDY 84 73 69 S6 30.05R HX 90  
COL. STATION CLEAR 84 73 69 S10 30.03R HX 90  
AUSTIN PTCLDY 81 72 74 S7 30.04R  
WACO CLEAR 88 69 53 S15 30.01R HX 92  
FORT WORTH CLOUDY 90 71 53 SE15 29.97S HX 96  
WICHITA FALLS MOCLDY 85 67 54 S13 29.94S  
LUBBOCK MOCLDY 86 55 34 S13 30.05S  
EL PASO PTCLDY 83 64 52 CALM 30.08R  

 
   
..MARINE OBSERVATIONS
 
 
 
STATION/POSITION TIME SKY/WX TEMP WIND PRES VSBY WAVE SWELL  
AIR SEA DIR/SP/G HT/PER HT/PER  
(UTC) (F) (DEG/KT/KT) (MB) (MI) (FT/S) (FT/S)  
PORT ARANSAS 0300 83 87 130/ 14/ 16 1017.2R  
BUOY 90 E PORT A 0350 85 86 120/ 14/ 16 1017.8R 2/ 6 2/ 6  
BUOY 45 SE BAFFI 0350 84 140/ 14/ 16 1016.9R 3/ 7 2/ 7  
BUOY 200 E PT IS 0350 86 87 120/ 8/ 10 1018.5S 2/ 5 2/ 5  
BUOY 15 E GALVES 0350 85 86 180/ 12/ 14 1017.9R 2/ 6 2/ 6  

 
 
 
CLICK HERE TO GO TO PREVIOUS BULLETINS.

The Nexlab TX Page Main Text Page